Location: Goettingen
(51.5300°N, 9.9433°E)
Time: 04:28:29
(UTC+01:00)

ISS - Pass Details

Date: 30 November 2021
Orbit: 417 x 423 km, 51.6° (Epoch: 29 November)

Event Time Altitude Azimuth Distance (km) Brightness Sun altitude
Rises 19:29:36 0° 284° (WNW) 2,381 1.2 -29.3°
Reaches altitude 10° 19:31:45 10° 278° (W) 1,514 0.0 -29.6°
Enters shadow 19:32:37 16° 273° (W) 1,182 -0.7 -29.8°
